Regional Weather Roundup
Issued by NWS Upton, NY

Current Version | Previous Version | Text Only | Print | Product List | Glossary On
Versions: 1 2 3 4 5 6 7 8 9 10 11 12 13 14 15 16 17 18 19 20 21 22 23 24 25 26 27 28 29 30 31 32 33 34 35 36 37 38 39 40 41 42 43 44 45 46 47 48 49 50
000
ASUS41 KOKX 262104
RWROKX

REGIONAL WEATHER ROUNDUP
NATIONAL WEATHER SERVICE NEW YORK NY
500 PM EDT THU MAY 26 2016

NOTE: "FAIR" INDICATES FEW OR NO CLOUDS BELOW 12,000 FEET WITH NO
SIGNIFICANT WEATHER AND/OR OBSTRUCTIONS TO VISIBILITY.

NYZ071-072-176-178-NJZ106-104-262200-
NEW YORK CITY METRO AREA


CITY           SKY/WX    TMP DP  RH WIND       PRES   REMARKS
CENTRAL PARK   MOSUNNY   85  50  29 VRB5      30.07S
LAGUARDIA APRT PTSUNNY   88  55  32 S17       30.03S
KENNEDY INTL   PTSUNNY   80  50  34 S17       30.06S
NEWARK/LIBERTY PTSUNNY   89  50  26 SE14G21   30.03S
BRNX BOT. GARD   N/A     84  52  32 SE6       30.06F
TETERBORO      SUNNY     89  48  24 S14G21    30.01S
$$

NYZ177-179-078>081-262200-
LONG ISLAND NEW YORK

CITY           SKY/WX    TMP DP  RH WIND       PRES   REMARKS
FARMINGDALE    MOSUNNY   82  51  34 SW13      30.06S
ISLIP          CLOUDY    81  52  36 S14       30.06S
SHIRLEY        MOSUNNY   80  53  39 S9        30.07S
RIVERHEAD        N/A     86  59  39 W1        30.05S
WESTHAMPTON    MOSUNNY  N/A N/A N/A SW13G18   30.09S
EAST HAMPTON   FAIR      77  56  47 SW10G16   30.06F
MONTAUK POINT    N/A     74  59  59 S5        30.08S
$$

NYZ052-065-067-262200-
HUDSON VALLEY

CITY           SKY/WX    TMP DP  RH WIND       PRES   REMARKS
WHITE PLAINS   SUNNY     85  54  34 S9        30.04F
NEWBURGH       NOT AVBL
MONTGOMERY     PTSUNNY   87  55  33 SW8       30.02S
POUGHKEEPSIE   PTSUNNY   89  55  31 SE5       30.01S
ALBANY         PTSUNNY   84  54  35 S7        30.02S
$$

NJZ001-105-106-008-010-013-015-019>022-104-262200-
NEW JERSEY

CITY           SKY/WX    TMP DP  RH WIND       PRES   REMARKS
NEWARK/LIBERTY PTSUNNY   89  50  26 SE14G21   30.03S
TETERBORO      SUNNY     89  48  24 S14G21    30.01S
CALDWELL       SUNNY     89  49  25 S6        30.03S
MORRISTOWN     MOSUNNY   88  52  29 W8        30.04S
SOMERVILLE     SUNNY     87  53  31 VRB7      30.02S
SUSSEX         CLOUDY    86  54  33 SW8       30.04S
ANDOVER          N/A     86  51  29 SW7       30.05S
TRENTON        SUNNY     88  50  27 VRB5      30.03F
MILLVILLE      MOSUNNY   85  52  32 VRB7      30.06S
ATLANTIC CITY  SUNNY     83  54  36 S9        30.06F
WRIGHTSTOWN    SUNNY     89  54  30 W12       30.01F
TOMS RIVER     MOSUNNY   88  52  29 S13       30.04F
BELMAR         MOSUNNY   85  52  32 SE12      30.07S
$$

PAZ047>061-062-071-262200-
EASTERN PENNSYLVANIA

CITY           SKY/WX    TMP DP  RH WIND       PRES   REMARKS
PHILADELPHIA   MOSUNNY   88  54  31 SW8       30.04F
ALLENTOWN      MOSUNNY   89  55  31 S10       30.03F
SCRANTON       MOSUNNY   85  56  37 W10       30.04S
$$

CTZ002-004>006-009-010-012-RIZ004-006-007-MAZ004-011-015-262200-
SOUTHERN NEW ENGLAND
 IN CT

CITY           SKY/WX    TMP DP  RH WIND       PRES   REMARKS
BRADLEY INTL   PTSUNNY   86  55  34 S8        30.02S
HARTFORD       PTSUNNY   89  56  32 S8        30.02S
DANBURY        CLOUDY    85  52  32 S10       30.05S
WTRBRY/OXFORD  PTSUNNY   84  55  37 SW9       30.08S
BRIDGEPORT     MOSUNNY   79  60  52 E7        30.04S
MERIDEN          N/A    N/A N/A N/A MISG      30.03F
NEW HAVEN      MOSUNNY   81  56  42 SE6       30.04F
CHESTER        FAIR      84  55  37 S8        30.06S
GROTON         PTSUNNY   70  59  68 S6        30.05S
WILLIMANTIC    MOSUNNY   88  54  31 S13G20    30.04R

 IN RI

CITY           SKY/WX    TMP DP  RH WIND       PRES   REMARKS
PROVIDENCE     MOSUNNY   81  58  45 S9        30.04S
BLOCK ISLAND   CLOUDY    70  55  59 SW14      30.07S
WESTERLY       PTSUNNY   79  50  36 S10       30.07S

 IN MA

CITY           SKY/WX    TMP DP  RH WIND       PRES   REMARKS
BOSTON         CLOUDY    66  56  70 E10       30.05S
WORCESTER      PTSUNNY   84  50  30 W7        30.06F
WESTFIELD      CLOUDY    88  56  33 S16       30.02S
PROVINCETOWN   SUNNY     72  57  59 SE8       30.08R
NANTUCKET      MOSUNNY   69  55  60 SE7       30.09R
$$

ANZ330-335-338-340-345-350-353-355-262200-
COASTAL MARINE OBSERVATIONS


STATION/POSITION TIME  SKY/WX   TEMP    WIND        PRES    VSBY  WAVE
                                AIR SEA DIR/SP/G                  HT/PER
                 (UTC)          (F)     (DEG/KT/KT) (MB)    (MI)  (FT/S)
NY HARB ENTRANCE 1950            66 62  190/ 10/ 12 1017.7          2/ 7
20S FIRE ISLAND  1950            63 60  200/ 10/ 12 1018.1          2/ 8
GREAT SOUTH BAY  2000            71 69  220/  8/ 10   N/A
23 SSW MONTAUK P 2050            61 58  210/  8/ 10 1018.0          2/ 7
15 E BARNEGAT LI 2022               58                N/A           2/ 8
HUDSON CANYON    1950            60 57              1019.2          2/ 8
KINGS POINT      2000            76 59              1017.1
EXECUTION ROCKS  NOT AVBL
CENTRAL LI SOUND 2000            66      90/  6/  6   N/A           0
EASTERN LI SOUND 2000            63 53  180/  6/  6   N/A
ROBBINS REEF     2000            79     170/ 17/ 21 1016.6
$$


>>>>>>>>>>>>>>>>>>>>>>>>>>>> KEY <<<<<<<<<<<<<<<<<<<<<<<<<<<
>                                                          <
>     SKY/WX - SKY CONDITION/PRESENT WEATHER               <
>     TMP    - TEMPERATURE IN FAHRENHEIT                   <
>     DP     - DEWPOINT IN FAHRENHEIT                      <
>     RH     - RELATIVE HUMIDITY IN PERCENT                <
>     WIND   - DIRECTION AND SPEED IN MPH                  <
>     PRES   - MEAN SEA LEVEL PRESSURE IN INCHES OF HG     <
>     WCI    - WIND CHILL INDEX                            <
>     VSB    - VISIBILITY IN MILES                         <
>     HX     - HEAT INDEX                                  <
>     TC     - TEMPERATURE IN CELSIUS                      <
>     VRB    - VARIABLE WIND DIRECTION                     <
>                                                          <
>>>>>>>>>>>>>>>>>>>>>>>>>>>> KEY <<<<<<<<<<<<<<<<<<<<<<<<<<<





USA.gov is the U.S. government's official web portal to all federal, state and local government web resources and services.